FW8431 Weather Reports


time (UTC)temp
C
wind
direction
speed
KPH
gust
KPH
rain 1hr
cm
rain 24hr
cm
rain mn
cm
humidity
%
barometer
mb
20260906071601 18 0 0.0 0.0 0.00 0.58 0.00 97 1017.6
20260906070105 18 0 0.0 0.0 0.00 0.58 0.00 97 1017.8
20260906064558 18 0 0.0 0.0 0.00 0.58 0.00 97 1017.8
20260906063103 18 0 0.0 0.0 0.00 0.58 0.00 97 1017.9
20260906061555 18 0 0.0 0.0 0.00 0.58 0.00 97 1018.0
20260906060106 18 0 0.0 0.0 0.00 0.58 0.00 97 1018.4
20260906054559 18 0 0.0 0.0 0.00 0.58 0.00 97 1018.5
20260906053106 19 0 0.0 0.0 0.00 0.58 0.00 97 1018.4
20260906051600 19 0 0.0 0.0 0.00 0.58 0.00 97 1018.7
20260906050106 19 0 0.0 0.0 0.00 0.58 0.00 97 1018.6
20260906044558 19 0 0.0 0.0 0.00 0.58 0.00 97 1018.8
20260906043101 19 0 0.0 0.0 0.00 0.58 0.00 97 1018.9
20260906041606 19 0 0.0 0.0 0.00 0.58 0.00 96 1019.0
20260906040112 19 0 0.0 0.0 0.00 0.58 0.00 97 1018.6
20260906034603 20 0 0.0 0.0 0.00 0.58 0.58 97 1018.6
20260906033110 20 0 0.0 0.0 0.00 0.58 0.58 96 1019.0
20260906031603 20 0 0.0 0.0 0.00 0.58 0.58 96 1019.1
20260906030107 20 0 0.0 0.0 0.00 0.58 0.58 96 1019.3
20260906024608 20 0 0.0 0.0 0.00 0.58 0.58 96 1019.1
20260906023104 20 0 0.0 4.8 0.00 0.58 0.58 95 1018.8
20260906021602 20 0 0.0 0.0 0.00 0.58 0.58 95 1018.7
20260906020110 20 0 0.0 0.0 0.00 0.58 0.58 95 1018.2
20260906014604 20 0 0.0 0.0 0.00 0.58 0.58 94 1018.1
20260906013110 20 0 0.0 3.2 0.00 0.58 0.58 94 1018.2
20260906011607 21 0 0.0 3.2 0.00 0.58 0.58 94 1018.1
20260906010107 21 0 0.0 3.2 0.00 0.58 0.58 93 1018.1
20260906004611 21 0 0.0 3.2 0.00 0.58 0.58 93 1018.1
20260906003105 21 244 0.0 3.2 0.00 0.58 0.58 92 1017.8
20260906001559 21 0 0.0 3.2 0.00 0.58 0.58 91 1017.8
20260906000059 22 0 0.0 3.2 0.00 0.58 0.58 91 1017.9
20260905234552 22 0 0.0 3.2 0.00 0.58 0.58 89 1017.7
20260905233100 23 241 0.0 3.2 0.00 0.58 0.58 87 1017.6
20260905231556 23 0 0.0 3.2 0.00 0.58 0.58 85 1017.4
20260905230058 24 241 0.0 4.8 0.00 0.58 0.58 84 1017.4
20260905224559 25 241 0.0 3.2 0.00 0.58 0.58 79 1017.4
20260905223106 25 241 0.0 4.8 0.00 0.58 0.58 78 1017.3
20260905221605 25 241 1.6 8.0 0.00 0.58 0.58 78 1017.5
20260905214604 25 234 6.4 11.3 0.00 0.58 0.58 78 1017.6
20260905213111 25 0 1.6 6.4 0.00 0.58 0.58 79 1017.9
20260905211604 25 248 3.2 9.7 0.00 0.58 0.58 81 1018.2
20260905210123 25 240 6.4 12.9 0.00 0.58 0.58 82 1018.4
20260905204602 24 227 4.8 12.9 0.00 0.58 0.58 84 1018.3
20260905203104 23 238 6.4 9.7 0.00 0.58 0.58 85 1018.2
20260905201607 23 214 1.6 6.4 0.00 0.58 0.58 87 1018.4
20260905194608 22 215 3.2 8.0 0.00 0.58 0.58 90 1019.3
20260905193104 21 212 0.0 6.4 0.00 0.58 0.58 91 1019.4
20260905191610 21 0 0.0 4.8 0.08 0.58 0.58 91 1019.2
20260905190109 21 212 0.0 4.8 0.10 0.58 0.58 90 1019.5
20260905184625 22 227 3.2 12.9 0.10 0.58 0.58 89 1019.8
20260905183129 22 296 1.6 4.8 0.10 0.58 0.58 90 1019.4
20260905181607 22 252 6.4 12.9 0.03 0.51 0.51 85 1019.7
20260905180100 23 246 3.2 14.5 0.00 0.48 0.48 85 1019.6
20260905174603 25 236 9.7 20.9 0.00 0.48 0.48 84 1019.5
20260905173116 25 128 4.8 12.9 0.00 0.48 0.48 82 1019.6
20260905171624 25 192 3.2 9.7 0.48 0.48 0.48 96 1019.9
20260905170101 23 84 1.6 6.4 0.48 0.48 0.48 96 1020.0
20260905164559 22 34 0.0 6.4 0.48 0.48 0.48 93 1019.7
20260905163102 23 27 3.2 14.5 0.48 0.48 0.48 86 1020.2
20260905161603 26 0 0.0 6.4 0.00 0.00 0.00 80 1020.3
20260905160059 27 0 0.0 3.2 0.00 0.00 0.00 77 1020.3
20260905154615 26 199 1.6 3.2 0.00 0.00 0.00 79 1020.2
20260905153102 26 199 0.0 3.2 0.00 0.00 0.00 80 1020.4
20260905151613 26 0 1.6 4.8 0.00 0.00 0.00 79 1020.3
20260905150056 25 198 0.0 6.4 0.00 0.00 0.00 84 1020.3
20260905144555 24 198 0.0 4.8 0.00 0.00 0.00 86 1020.2
20260905143055 23 198 1.6 4.8 0.00 0.00 0.00 90 1020.2
20260905141602 22 198 0.0 6.4 0.00 0.00 0.00 92 1020.5
20260905140059 21 198 1.6 4.8 0.00 0.00 0.00 94 1020.6
20260905134556 21 198 1.6 4.8 0.00 0.00 0.00 96 1020.8
20260905133053 20 0 1.6 3.2 0.00 0.00 0.00 98 1020.8
20260905131552 20 0 0.0 3.2 0.00 0.00 0.00 98 1020.8
20260905130059 20 0 0.0 1.6 0.00 0.00 0.00 98 1020.9
20260905124557 18 0 0.0 0.0 0.00 0.00 0.00 98 1021.1
20260905123104 18 0 0.0 0.0 0.00 0.00 0.00 98 1020.9
20260905121602 18 0 0.0 0.0 0.00 0.00 0.00 98 1020.9
20260905120105 17 0 0.0 0.0 0.00 0.00 0.00 98 1020.8
20260905114605 17 0 0.0 0.0 0.00 0.00 0.00 97 1020.6
20260905113101 18 0 0.0 0.0 0.00 0.00 0.00 97 1020.5
20260905111644 18 0 0.0 0.0 0.00 0.00 0.00 97 1020.2
20260905110057 18 0 0.0 0.0 0.00 0.00 0.00 98 1019.9
20260905104607 18 0 0.0 0.0 0.00 0.00 0.00 98 1019.9
20260905103104 18 0 0.0 0.0 0.00 0.00 0.00 97 1019.8
20260905101605 17 0 0.0 0.0 0.00 0.00 0.00 97 1019.8
20260905094557 18 0 0.0 0.0 0.00 0.00 0.00 97 1019.5
20260905093106 18 0 0.0 0.0 0.00 0.00 0.00 97 1019.5
20260905091559 18 0 0.0 0.0 0.00 0.00 0.00 97 1019.6
20260905090055 18 0 0.0 0.0 0.00 0.00 0.00 97 1019.8
20260905084603 18 0 0.0 0.0 0.00 0.00 0.00 97 1020.1
20260905083102 18 0 0.0 0.0 0.00 0.00 0.00 97 1020.1
20260905081557 18 0 0.0 0.0 0.00 0.00 0.00 97 1020.2
20260905080110 18 0 0.0 0.0 0.00 0.00 0.00 97 1020.3
20260905074553 18 0 0.0 0.0 0.00 0.00 0.00 97 1020.2
20260905073102 19 0 0.0 0.0 0.00 0.00 0.00 96 1020.4